| time (UTC) | temp F | wind direction | speed MPH | gust MPH | rain 1hr in | rain 24hr in | rain mn in | humidity % | barometer mb |
| 20260506213005 | 37 | 23 | 1.0 | 3.0 | 0.01 | 0.46 | 0.40 | 71 | 1017.0 |
| 20260506213002 | 37 | 23 | 1.0 | 3.0 | 0.01 | 0.46 | 0.40 | 71 | 1019.7 |
| 20260506212504 | 36 | 23 | 2.0 | 3.0 | 0.01 | 0.46 | 0.40 | 71 | 1017.0 |
| 20260506212005 | 36 | 23 | 1.0 | 5.0 | 0.01 | 0.46 | 0.40 | 72 | 1017.0 |
| 20260506211507 | 36 | 23 | 3.0 | 5.0 | 0.02 | 0.46 | 0.40 | 72 | 1019.6 |
| 20260506211504 | 36 | 23 | 3.0 | 5.0 | 0.02 | 0.46 | 0.40 | 72 | 1016.9 |
| 20260506210504 | 38 | 53 | 3.0 | 5.0 | 0.05 | 0.46 | 0.40 | 69 | 1016.9 |
| 20260506210006 | 38 | 29 | 3.0 | 4.0 | 0.06 | 0.46 | 0.40 | 70 | 1017.1 |
| 20260506210004 | 38 | 29 | 2.0 | 4.0 | 0.06 | 0.46 | 0.40 | 70 | 1019.7 |
| 20260506205505 | 38 | 29 | 2.0 | 4.0 | 0.08 | 0.47 | 0.40 | 72 | 1017.0 |
| 20260506205005 | 38 | 29 | 1.0 | 5.0 | 0.10 | 0.47 | 0.40 | 70 | 1017.0 |
| 20260506204503 | 37 | 29 | 3.0 | 5.0 | 0.12 | 0.47 | 0.40 | 70 | 1017.2 |
| 20260506204006 | 37 | 43 | 2.0 | 4.0 | 0.13 | 0.47 | 0.40 | 71 | 1017.3 |
| 20260506203504 | 37 | 43 | 1.0 | 6.0 | 0.14 | 0.46 | 0.39 | 72 | 1017.3 |
| 20260506203002 | 37 | 43 | 3.0 | 6.0 | 0.15 | 0.46 | 0.39 | 69 | 1020.1 |
| 20260506202504 | 38 | 54 | 4.0 | 6.0 | 0.16 | 0.46 | 0.39 | 69 | 1017.3 |
| 20260506202006 | 39 | 33 | 4.0 | 9.0 | 0.17 | 0.46 | 0.39 | 69 | 1017.4 |
| 20260506201504 | 38 | 38 | 5.0 | 8.0 | 0.17 | 0.45 | 0.38 | 71 | 1017.3 |
| 20260506201502 | 38 | 38 | 5.0 | 8.0 | 0.17 | 0.45 | 0.38 | 71 | 1020.0 |
| 20260506201004 | 37 | 22 | 5.0 | 8.0 | 0.18 | 0.44 | 0.37 | 73 | 1017.3 |
| 20260506200504 | 37 | 32 | 4.0 | 8.0 | 0.17 | 0.42 | 0.35 | 74 | 1017.3 |
| 20260506200006 | 36 | 49 | 5.0 | 9.0 | 0.17 | 0.41 | 0.34 | 75 | 1017.3 |
| 20260506200004 | 36 | 49 | 4.0 | 9.0 | 0.17 | 0.41 | 0.34 | 75 | 1020.0 |
| 20260506195504 | 36 | 30 | 6.0 | 9.0 | 0.16 | 0.40 | 0.32 | 76 | 1017.3 |
| 20260506195005 | 35 | 34 | 4.0 | 10.0 | 0.15 | 0.38 | 0.30 | 78 | 1017.3 |
| 20260506194504 | 35 | 22 | 5.0 | 11.0 | 0.14 | 0.36 | 0.28 | 79 | 1017.3 |
| 20260506194005 | 34 | 42 | 6.0 | 11.0 | 0.13 | 0.34 | 0.26 | 80 | 1017.3 |
| 20260506193504 | 33 | 51 | 4.0 | 9.0 | 0.13 | 0.32 | 0.24 | 81 | 1017.3 |
| 20260506193006 | 33 | 35 | 6.0 | 11.0 | 0.14 | 0.32 | 0.24 | 80 | 1017.3 |
| 20260506193003 | 33 | 42 | 5.0 | 11.0 | 0.14 | 0.32 | 0.24 | 80 | 1020.0 |
| 20260506192004 | 34 | 34 | 6.0 | 11.0 | 0.14 | 0.29 | 0.21 | 82 | 1017.3 |
| 20260506191504 | 34 | 9 | 7.0 | 11.0 | 0.14 | 0.28 | 0.20 | 81 | 1017.3 |
| 20260506191502 | 34 | 9 | 7.0 | 11.0 | 0.14 | 0.28 | 0.20 | 81 | 1019.9 |
| 20260506191004 | 33 | 32 | 8.0 | 12.0 | 0.14 | 0.27 | 0.19 | 81 | 1017.3 |
| 20260506190003 | 34 | 360 | 8.0 | 12.0 | 0.14 | 0.25 | 0.17 | 79 | 1020.1 |
| 20260506185504 | 34 | 20 | 8.0 | 12.0 | 0.13 | 0.26 | 0.16 | 80 | 1017.4 |
| 20260506185005 | 34 | 19 | 7.0 | 12.0 | 0.13 | 0.25 | 0.15 | 80 | 1017.5 |
| 20260506184504 | 34 | 16 | 10.0 | 12.0 | 0.13 | 0.24 | 0.14 | 81 | 1017.4 |
| 20260506184502 | 34 | 16 | 9.0 | 12.0 | 0.13 | 0.24 | 0.14 | 81 | 1020.1 |
| 20260506183504 | 34 | 20 | 9.0 | 12.0 | 0.10 | 0.21 | 0.11 | 81 | 1017.5 |
| 20260506183005 | 34 | 15 | 8.0 | 12.0 | 0.08 | 0.19 | 0.09 | 83 | 1017.5 |
| 20260506183002 | 34 | 15 | 8.0 | 12.0 | 0.08 | 0.19 | 0.09 | 83 | 1020.2 |
| 20260506182004 | 34 | 24 | 8.0 | 11.0 | 0.06 | 0.17 | 0.07 | 83 | 1017.3 |
| 20260506181505 | 34 | 28 | 7.0 | 10.0 | 0.05 | 0.16 | 0.06 | 83 | 1017.3 |
| 20260506181502 | 34 | 28 | 7.0 | 10.0 | 0.05 | 0.16 | 0.06 | 83 | 1019.9 |
| 20260506181005 | 34 | 48 | 5.0 | 10.0 | 0.04 | 0.15 | 0.05 | 84 | 1017.2 |
| 20260506180504 | 33 | 40 | 7.0 | 11.0 | 0.03 | 0.14 | 0.04 | 85 | 1017.3 |
| 20260506180006 | 32 | 36 | 6.0 | 11.0 | 0.02 | 0.13 | 0.03 | 85 | 1017.2 |
| 20260506180003 | 32 | 36 | 6.0 | 11.0 | 0.02 | 0.13 | 0.03 | 85 | 1019.9 |
| 20260506175504 | 32 | 42 | 6.0 | 11.0 | 0.01 | 0.13 | 0.02 | 86 | 1017.2 |
| 20260506175005 | 32 | 32 | 5.0 | 11.0 | 0.01 | 0.13 | 0.02 | 86 | 1017.3 |
| 20260506174502 | 32 | 52 | 6.0 | 11.0 | 0.00 | 0.12 | 0.01 | 86 | 1020.0 |
| 20260506174006 | 33 | 19 | 7.0 | 11.0 | 0.00 | 0.12 | 0.01 | 86 | 1017.4 |
| 20260506173503 | 33 | 5 | 8.0 | 11.0 | 0.00 | 0.12 | 0.01 | 87 | 1017.3 |
| 20260506173006 | 33 | 344 | 2.0 | 9.0 | 0.00 | 0.12 | 0.01 | 87 | 1017.2 |
| 20260506173002 | 33 | 344 | 1.0 | 9.0 | 0.00 | 0.12 | 0.01 | 87 | 1019.8 |
| 20260506172504 | 33 | 5 | 2.0 | 8.0 | 0.00 | 0.12 | 0.01 | 88 | 1017.1 |
| 20260506171505 | 33 | 19 | 7.0 | 10.0 | 0.00 | 0.12 | 0.01 | 88 | 1016.7 |
| 20260506171502 | 33 | 19 | 6.0 | 10.0 | 0.00 | 0.12 | 0.01 | 88 | 1019.4 |
| 20260506171005 | 32 | 360 | 4.0 | 10.0 | 0.00 | 0.12 | 0.01 | 89 | 1016.5 |
| 20260506170007 | 32 | 15 | 5.0 | 10.0 | 0.00 | 0.12 | 0.01 | 89 | 1016.7 |
| 20260506170002 | 32 | 15 | 5.0 | 10.0 | 0.00 | 0.12 | 0.01 | 89 | 1019.3 |
| 20260506165503 | 32 | 21 | 3.0 | 10.0 | 0.00 | 0.14 | 0.01 | 90 | 1016.7 |
| 20260506165005 | 32 | 22 | 5.0 | 10.0 | 0.00 | 0.14 | 0.01 | 90 | 1016.7 |
| 20260506164505 | 31 | 22 | 3.0 | 8.0 | 0.00 | 0.14 | 0.01 | 91 | 1016.7 |
| 20260506164006 | 31 | 5 | 2.0 | 9.0 | 0.00 | 0.14 | 0.01 | 91 | 1016.6 |
| 20260506163504 | 31 | 336 | 3.0 | 11.0 | 0.00 | 0.14 | 0.01 | 90 | 1016.5 |
| 20260506163006 | 32 | 5 | 3.0 | 6.0 | 0.00 | 0.14 | 0.01 | 91 | 1016.4 |
| 20260506163002 | 32 | 5 | 3.0 | 6.0 | 0.00 | 0.14 | 0.01 | 91 | 1019.0 |
| 20260506162503 | 32 | 5 | 4.0 | 6.0 | 0.00 | 0.14 | 0.01 | 91 | 1016.4 |
| 20260506162004 | 32 | 23 | 2.0 | 5.0 | 0.00 | 0.14 | 0.01 | 92 | 1016.5 |
| 20260506161502 | 31 | 23 | 2.0 | 5.0 | 0.01 | 0.14 | 0.01 | 92 | 1019.0 |
| 20260506161004 | 31 | 23 | 3.0 | 6.0 | 0.01 | 0.14 | 0.01 | 93 | 1016.5 |
| 20260506160504 | 31 | 360 | 3.0 | 6.0 | 0.01 | 0.14 | 0.01 | 92 | 1016.5 |
| 20260506160007 | 31 | 24 | 4.0 | 8.0 | 0.01 | 0.14 | 0.01 | 93 | 1016.3 |
| 20260506160002 | 31 | 24 | 4.0 | 8.0 | 0.01 | 0.14 | 0.01 | 93 | 1018.9 |
| 20260506155504 | 31 | 22 | 5.0 | 8.0 | 0.01 | 0.15 | 0.01 | 93 | 1016.4 |
| 20260506155006 | 30 | 19 | 6.0 | 8.0 | 0.01 | 0.15 | 0.01 | 93 | 1016.3 |
| 20260506154507 | 30 | 360 | 4.0 | 8.0 | 0.01 | 0.15 | 0.01 | 93 | 1019.0 |
| 20260506154005 | 30 | 355 | 2.0 | 6.0 | 0.01 | 0.15 | 0.01 | 93 | 1016.3 |
| 20260506153504 | 30 | 315 | 2.0 | 6.0 | 0.01 | 0.15 | 0.01 | 94 | 1016.2 |
| 20260506153002 | 30 | 26 | 0.0 | 0.0 | 0.01 | 0.15 | 0.01 | 94 | 1018.8 |
| 20260506152504 | 30 | 5 | 0.0 | 0.0 | 0.01 | 0.15 | 0.01 | 94 | 1016.0 |
| 20260506152004 | 30 | 9 | 0.0 | 0.0 | 0.00 | 0.14 | 0.00 | 94 | 1015.9 |
| 20260506151504 | 30 | 13 | 0.0 | 0.0 | 0.00 | 0.14 | 0.00 | 94 | 1015.9 |
| 20260506151502 | 30 | 13 | 0.0 | 0.0 | 0.00 | 0.14 | 0.00 | 94 | 1018.5 |
| 20260506151005 | 30 | 19 | 0.0 | 0.0 | 0.00 | 0.14 | 0.00 | 95 | 1015.8 |
| 20260506150505 | 30 | 24 | 0.0 | 1.0 | 0.00 | 0.14 | 0.00 | 95 | 1015.8 |
| 20260506150006 | 30 | 22 | 0.0 | 1.0 | 0.00 | 0.14 | 0.00 | 95 | 1015.8 |
| 20260506150003 | 30 | 22 | 0.0 | 1.0 | 0.00 | 0.14 | 0.00 | 95 | 1018.4 |
| 20260506145004 | 29 | 25 | 0.0 | 0.0 | 0.00 | 0.15 | 0.00 | 96 | 1015.8 |
| 20260506144504 | 29 | 14 | 0.0 | 0.0 | 0.00 | 0.15 | 0.00 | 96 | 1015.8 |
| 20260506144501 | 29 | 14 | 0.0 | 0.0 | 0.00 | 0.15 | 0.00 | 96 | 1018.4 |
| 20260506144004 | 29 | 14 | 0.0 | 0.0 | 0.00 | 0.15 | 0.00 | 96 | 1015.8 |
| 20260506143504 | 29 | 14 | 0.0 | 0.0 | 0.00 | 0.15 | 0.00 | 96 | 1015.8 |
| 20260506143002 | 28 | 14 | 0.0 | 0.0 | 0.00 | 0.15 | 0.00 | 96 | 1018.4 |
| 20260506142504 | 28 | 14 | 0.0 | 0.0 | 0.00 | 0.15 | 0.00 | 96 | 1015.7 |
| 20260506142005 | 28 | 14 | 0.0 | 0.0 | 0.00 | 0.15 | 0.00 | 96 | 1015.7 |
| 20260506141503 | 28 | 14 | 0.0 | 0.0 | 0.00 | 0.15 | 0.00 | 96 | 1018.2 |
| 20260506141005 | 28 | 14 | 0.0 | 0.0 | 0.00 | 0.15 | 0.00 | 96 | 1015.7 |
| 20260506140504 | 28 | 14 | 0.0 | 0.0 | 0.00 | 0.15 | 0.00 | 96 | 1015.7 |
| 20260506140006 | 28 | 14 | 0.0 | 0.0 | 0.00 | 0.15 | 0.00 | 97 | 1015.6 |
| 20260506140003 | 28 | 14 | 0.0 | 0.0 | 0.00 | 0.15 | 0.00 | 97 | 1018.2 |
| 20260506135504 | 28 | 14 | 0.0 | 0.0 | 0.00 | 0.16 | 0.00 | 97 | 1015.6 |
| 20260506135005 | 28 | 14 | 0.0 | 0.0 | 0.00 | 0.16 | 0.00 | 97 | 1015.7 |
| 20260506134505 | 28 | 14 | 0.0 | 0.0 | 0.00 | 0.16 | 0.00 | 97 | 1015.6 |
| 20260506134502 | 28 | 14 | 0.0 | 0.0 | 0.00 | 0.16 | 0.00 | 97 | 1018.1 |
| 20260506133505 | 28 | 24 | 0.0 | 0.0 | 0.00 | 0.16 | 0.00 | 97 | 1015.4 |
| 20260506133005 | 28 | 22 | 0.0 | 0.0 | 0.00 | 0.16 | 0.00 | 97 | 1015.2 |
| 20260506133001 | 28 | 22 | 0.0 | 0.0 | 0.00 | 0.16 | 0.00 | 97 | 1017.6 |
| 20260506132504 | 28 | 29 | 0.0 | 0.0 | 0.00 | 0.16 | 0.00 | 97 | 1015.1 |
| 20260506132005 | 27 | 29 | 0.0 | 0.0 | 0.00 | 0.16 | 0.00 | 97 | 1015.1 |
| 20260506131504 | 27 | 29 | 0.0 | 0.0 | 0.00 | 0.16 | 0.00 | 97 | 1017.3 |
| 20260506131005 | 27 | 38 | 0.0 | 0.0 | 0.00 | 0.16 | 0.00 | 97 | 1014.9 |
| 20260506130503 | 27 | 32 | 0.0 | 0.0 | 0.00 | 0.16 | 0.00 | 97 | 1014.8 |
| 20260506130003 | 27 | 32 | 0.0 | 0.0 | 0.00 | 0.16 | 0.00 | 97 | 1017.1 |
| 20260506125504 | 27 | 23 | 0.0 | 0.0 | 0.00 | 0.19 | 0.00 | 97 | 1014.8 |
| 20260506125005 | 27 | 40 | 0.0 | 0.0 | 0.00 | 0.19 | 0.00 | 97 | 1014.6 |
| 20260506124504 | 27 | 42 | 0.0 | 0.0 | 0.00 | 0.19 | 0.00 | 97 | 1014.6 |
| 20260506124501 | 27 | 42 | 0.0 | 0.0 | 0.00 | 0.19 | 0.00 | 97 | 1016.8 |
| 20260506124005 | 26 | 40 | 0.0 | 0.0 | 0.00 | 0.19 | 0.00 | 97 | 1014.4 |
| 20260506123503 | 26 | 32 | 0.0 | 0.0 | 0.00 | 0.19 | 0.00 | 97 | 1014.5 |
| 20260506123005 | 26 | 18 | 0.0 | 0.0 | 0.00 | 0.19 | 0.00 | 97 | 1014.5 |
| 20260506123003 | 26 | 18 | 0.0 | 0.0 | 0.00 | 0.19 | 0.00 | 97 | 1016.6 |
| 20260506122005 | 26 | 23 | 0.0 | 0.0 | 0.00 | 0.19 | 0.00 | 97 | 1014.3 |
| 20260506121504 | 26 | 15 | 0.0 | 0.0 | 0.00 | 0.19 | 0.00 | 97 | 1014.4 |
| 20260506121502 | 26 | 15 | 0.0 | 0.0 | 0.00 | 0.19 | 0.00 | 97 | 1016.5 |
| 20260506121004 | 26 | 22 | 0.0 | 0.0 | 0.00 | 0.19 | 0.00 | 97 | 1014.4 |
| 20260506120008 | 26 | 39 | 0.0 | 0.0 | 0.00 | 0.19 | 0.00 | 97 | 1016.2 |
| 20260506120006 | 26 | 39 | 0.0 | 0.0 | 0.00 | 0.19 | 0.00 | 97 | 1014.2 |
| 20260506115504 | 26 | 45 | 0.0 | 0.0 | 0.00 | 0.21 | 0.00 | 97 | 1014.1 |
| 20260506115005 | 26 | 49 | 0.0 | 0.0 | 0.00 | 0.21 | 0.00 | 97 | 1014.1 |
| 20260506114504 | 26 | 46 | 0.0 | 0.0 | 0.00 | 0.21 | 0.00 | 97 | 1014.0 |
| 20260506114502 | 26 | 46 | 0.0 | 0.0 | 0.00 | 0.21 | 0.00 | 97 | 1015.8 |
| 20260506114005 | 26 | 53 | 0.0 | 0.0 | 0.00 | 0.21 | 0.00 | 97 | 1014.0 |
| 20260506113503 | 26 | 42 | 0.0 | 0.0 | 0.00 | 0.21 | 0.00 | 97 | 1014.0 |
| 20260506113006 | 26 | 23 | 0.0 | 0.0 | 0.00 | 0.21 | 0.00 | 97 | 1014.0 |
| 20260506113002 | 26 | 23 | 0.0 | 0.0 | 0.00 | 0.21 | 0.00 | 97 | 1015.8 |
| 20260506112504 | 26 | 43 | 0.0 | 0.0 | 0.00 | 0.21 | 0.00 | 97 | 1014.1 |
| 20260506112004 | 26 | 31 | 0.0 | 0.0 | 0.00 | 0.21 | 0.00 | 97 | 1014.0 |
| 20260506111504 | 26 | 32 | 0.0 | 0.0 | 0.00 | 0.21 | 0.00 | 97 | 1014.0 |
| 20260506111502 | 26 | 32 | 0.0 | 0.0 | 0.00 | 0.21 | 0.00 | 97 | 1015.8 |
| 20260506111005 | 26 | 38 | 0.0 | 0.0 | 0.00 | 0.21 | 0.00 | 97 | 1013.9 |
| 20260506110504 | 26 | 34 | 0.0 | 0.0 | 0.00 | 0.21 | 0.00 | 97 | 1013.8 |
| 20260506110005 | 26 | 45 | 0.0 | 0.0 | 0.00 | 0.21 | 0.00 | 97 | 1013.8 |
| 20260506110002 | 26 | 45 | 0.0 | 0.0 | 0.00 | 0.21 | 0.00 | 97 | 1015.4 |
| 20260506105005 | 26 | 31 | 0.0 | 0.0 | 0.00 | 0.21 | 0.00 | 97 | 1013.8 |
| 20260506104504 | 26 | 25 | 0.0 | 0.0 | 0.00 | 0.21 | 0.00 | 97 | 1013.9 |
| 20260506104501 | 26 | 25 | 0.0 | 0.0 | 0.00 | 0.21 | 0.00 | 97 | 1015.4 |
| 20260506104005 | 26 | 20 | 0.0 | 0.0 | 0.00 | 0.21 | 0.00 | 97 | 1014.0 |
| 20260506103504 | 26 | 10 | 0.0 | 0.0 | 0.00 | 0.21 | 0.00 | 97 | 1013.8 |
| 20260506103005 | 26 | 19 | 0.0 | 0.0 | 0.00 | 0.21 | 0.00 | 97 | 1013.8 |
| 20260506103001 | 26 | 19 | 0.0 | 0.0 | 0.00 | 0.21 | 0.00 | 97 | 1015.4 |
| 20260506102503 | 26 | 29 | 0.0 | 0.0 | 0.00 | 0.21 | 0.00 | 97 | 1013.8 |
| 20260506102004 | 26 | 5 | 0.0 | 0.0 | 0.00 | 0.21 | 0.00 | 97 | 1013.7 |
| 20260506101505 | 27 | 15 | 0.0 | 0.0 | 0.00 | 0.21 | 0.00 | 97 | 1013.7 |
| 20260506101006 | 27 | 5 | 0.0 | 0.0 | 0.00 | 0.21 | 0.00 | 97 | 1013.7 |
| 20260506100504 | 27 | 5 | 0.0 | 0.0 | 0.00 | 0.21 | 0.00 | 97 | 1013.7 |
| 20260506100006 | 27 | 344 | 0.0 | 0.0 | 0.00 | 0.21 | 0.00 | 97 | 1013.6 |
| 20260506100002 | 27 | 344 | 0.0 | 0.0 | 0.00 | 0.21 | 0.00 | 97 | 1015.1 |
| 20260506095504 | 27 | 13 | 0.0 | 0.0 | 0.00 | 0.21 | 0.00 | 97 | 1013.5 |
| 20260506095005 | 27 | 14 | 0.0 | 0.0 | 0.00 | 0.21 | 0.00 | 97 | 1013.5 |
| 20260506094504 | 27 | 14 | 0.0 | 0.0 | 0.00 | 0.21 | 0.00 | 97 | 1013.5 |
| 20260506094501 | 27 | 14 | 0.0 | 0.0 | 0.00 | 0.21 | 0.00 | 97 | 1014.9 |
| 20260506094006 | 27 | 9 | 0.0 | 0.0 | 0.00 | 0.21 | 0.00 | 97 | 1013.4 |
| 20260506093504 | 27 | 348 | 0.0 | 0.0 | 0.00 | 0.21 | 0.00 | 97 | 1013.4 |
| 20260506093005 | 27 | 348 | 0.0 | 0.0 | 0.00 | 0.21 | 0.00 | 97 | 1013.4 |
| 20260506092504 | 27 | 20 | 0.0 | 0.0 | 0.00 | 0.21 | 0.00 | 97 | 1013.4 |
| 20260506092005 | 27 | 28 | 0.0 | 0.0 | 0.00 | 0.21 | 0.00 | 97 | 1013.4 |
| 20260506091504 | 27 | 11 | 0.0 | 0.0 | 0.00 | 0.21 | 0.00 | 97 | 1013.4 |
| 20260506091502 | 27 | 11 | 0.0 | 0.0 | 0.00 | 0.21 | 0.00 | 97 | 1014.6 |
| 20260506090503 | 27 | 16 | 0.0 | 0.0 | 0.00 | 0.21 | 0.00 | 97 | 1013.5 |
| 20260506090006 | 27 | 30 | 0.0 | 0.0 | 0.00 | 0.21 | 0.00 | 97 | 1013.5 |
| 20260506090001 | 27 | 30 | 0.0 | 0.0 | 0.00 | 0.21 | 0.00 | 97 | 1014.6 |
| 20260506085504 | 27 | 360 | 0.0 | 0.0 | 0.00 | 0.22 | 0.00 | 97 | 1013.6 |
| 20260506085004 | 27 | 345 | 0.0 | 0.0 | 0.00 | 0.22 | 0.00 | 97 | 1013.6 |
| 20260506084558 | 27 | 336 | 0.0 | 0.0 | 0.00 | 0.22 | 0.00 | 97 | 1014.7 |
| 20260506084459 | 27 | 336 | 0.0 | 0.0 | 0.00 | 0.22 | 0.00 | 97 | 1013.7 |
| 20260506084004 | 27 | 342 | 0.0 | 0.0 | 0.00 | 0.22 | 0.00 | 97 | 1013.6 |
| 20260506083504 | 27 | 333 | 0.0 | 0.0 | 0.00 | 0.22 | 0.00 | 97 | 1013.6 |
| 20260506083004 | 27 | 336 | 0.0 | 0.0 | 0.00 | 0.22 | 0.00 | 97 | 1013.5 |
| 20260506082504 | 27 | 347 | 0.0 | 0.0 | 0.00 | 0.22 | 0.00 | 97 | 1013.4 |
| 20260506082004 | 27 | 15 | 0.0 | 0.0 | 0.00 | 0.22 | 0.00 | 97 | 1013.5 |
| 20260506081504 | 27 | 346 | 0.0 | 0.0 | 0.00 | 0.22 | 0.00 | 97 | 1013.5 |
| 20260506081502 | 27 | 346 | 0.0 | 0.0 | 0.00 | 0.22 | 0.00 | 97 | 1014.5 |
| 20260506080504 | 27 | 317 | 0.0 | 0.0 | 0.00 | 0.22 | 0.00 | 97 | 1013.5 |
| 20260506073006 | 28 | 26 | 0.0 | 0.0 | 0.00 | 0.22 | 0.00 | 97 | 1013.4 |
| 20260506072504 | 28 | 335 | 0.0 | 0.0 | 0.00 | 0.22 | 0.00 | 97 | 1013.4 |
| 20260506072006 | 28 | 337 | 0.0 | 0.0 | 0.00 | 0.22 | 0.00 | 97 | 1013.3 |
| 20260506071503 | 28 | 342 | 0.0 | 0.0 | 0.00 | 0.22 | 0.00 | 97 | 1013.4 |
| 20260506071007 | 28 | 345 | 0.0 | 0.0 | 0.00 | 0.22 | 0.00 | 97 | 1013.4 |
| 20260506062506 | 28 | 351 | 0.0 | 0.0 | 0.00 | 0.23 | 0.00 | 97 | 1013.1 |
| 20260506062006 | 28 | 10 | 0.0 | 0.0 | 0.00 | 0.23 | 0.00 | 97 | 1013.1 |
| 20260506061506 | 28 | 334 | 0.0 | 0.0 | 0.00 | 0.23 | 0.00 | 97 | 1013.1 |
| 20260506061504 | 28 | 334 | 0.0 | 0.0 | 0.00 | 0.23 | 0.00 | 97 | 1013.2 |
| 20260506061006 | 28 | 334 | 0.0 | 0.0 | 0.00 | 0.23 | 0.00 | 97 | 1013.0 |
| 20260506060505 | 28 | 5 | 0.0 | 0.0 | 0.00 | 0.23 | 0.00 | 97 | 1013.0 |
| 20260506051028 | 29 | 355 | 0.0 | 1.0 | 0.00 | 0.25 | 0.23 | 97 | 1012.8 |
| 20260506050505 | 29 | 15 | 0.0 | 4.0 | 0.00 | 0.25 | 0.23 | 97 | 1012.7 |
| 20260506045005 | 29 | 30 | 0.0 | 3.0 | 0.00 | 0.28 | 0.23 | 97 | 1012.6 |
| 20260506044503 | 29 | 350 | 0.0 | 4.0 | 0.00 | 0.28 | 0.23 | 97 | 1012.2 |
| 20260506044005 | 29 | 350 | 0.0 | 2.0 | 0.00 | 0.28 | 0.23 | 97 | 1012.6 |
| 20260506043505 | 29 | 326 | 0.0 | 2.0 | 0.00 | 0.28 | 0.23 | 97 | 1012.7 |
| 20260506043006 | 29 | 342 | 1.0 | 2.0 | 0.00 | 0.28 | 0.23 | 96 | 1012.7 |
| 20260506043003 | 29 | 342 | 0.0 | 2.0 | 0.00 | 0.28 | 0.23 | 96 | 1012.3 |
| 20260506042505 | 29 | 342 | 0.0 | 2.0 | 0.00 | 0.28 | 0.23 | 96 | 1012.7 |
| 20260506042003 | 29 | 342 | 1.0 | 2.0 | 0.00 | 0.28 | 0.23 | 97 | 1012.7 |
| 20260506041509 | 29 | 337 | 0.0 | 2.0 | 0.00 | 0.28 | 0.23 | 97 | 1012.1 |
| 20260506041505 | 29 | 337 | 1.0 | 2.0 | 0.00 | 0.28 | 0.23 | 97 | 1012.7 |
| 20260506040505 | 29 | 5 | 0.0 | 3.0 | 0.00 | 0.28 | 0.23 | 97 | 1012.5 |
| 20260506040006 | 29 | 28 | 0.0 | 4.0 | 0.00 | 0.28 | 0.23 | 96 | 1011.7 |
| 20260506035504 | 29 | 32 | 1.0 | 4.0 | 0.00 | 0.28 | 0.23 | 96 | 1012.5 |
| 20260506035005 | 29 | 5 | 1.0 | 3.0 | 0.00 | 0.28 | 0.23 | 96 | 1012.5 |
| 20260506034505 | 29 | 338 | 0.0 | 2.0 | 0.00 | 0.28 | 0.23 | 96 | 1012.5 |
| 20260506034502 | 29 | 338 | 0.0 | 2.0 | 0.00 | 0.28 | 0.23 | 96 | 1011.7 |
| 20260506034005 | 29 | 350 | 1.0 | 2.0 | 0.00 | 0.28 | 0.23 | 97 | 1012.3 |
| 20260506033505 | 29 | 19 | 1.0 | 4.0 | 0.00 | 0.28 | 0.23 | 96 | 1012.3 |
| 20260506033006 | 29 | 19 | 2.0 | 4.0 | 0.00 | 0.28 | 0.23 | 96 | 1012.3 |
| 20260506033003 | 29 | 19 | 2.0 | 4.0 | 0.00 | 0.28 | 0.23 | 96 | 1011.3 |
| 20260506032006 | 29 | 13 | 1.0 | 4.0 | 0.00 | 0.28 | 0.23 | 97 | 1012.1 |
| 20260506031504 | 29 | 15 | 2.0 | 4.0 | 0.00 | 0.28 | 0.23 | 96 | 1012.0 |
| 20260506031006 | 29 | 360 | 1.0 | 5.0 | 0.00 | 0.28 | 0.23 | 96 | 1011.9 |
| 20260506030505 | 29 | 13 | 3.0 | 5.0 | 0.00 | 0.28 | 0.23 | 96 | 1011.8 |
| 20260506030007 | 30 | 40 | 0.0 | 3.0 | 0.00 | 0.28 | 0.23 | 96 | 1010.4 |
| 20260506025505 | 30 | 25 | 2.0 | 3.0 | 0.00 | 0.28 | 0.23 | 96 | 1011.6 |
| 20260506024507 | 30 | 13 | 1.0 | 5.0 | 0.00 | 0.28 | 0.23 | 96 | 1009.9 |
| 20260506024505 | 30 | 13 | 1.0 | 5.0 | 0.00 | 0.28 | 0.23 | 96 | 1011.2 |
| 20260506024005 | 30 | 13 | 0.0 | 5.0 | 0.00 | 0.28 | 0.23 | 96 | 1011.1 |
| 20260506023504 | 30 | 13 | 1.0 | 5.0 | 0.00 | 0.28 | 0.23 | 96 | 1011.1 |
| 20260506023006 | 30 | 333 | 1.0 | 4.0 | 0.00 | 0.28 | 0.23 | 96 | 1011.1 |
| 20260506023003 | 30 | 333 | 0.0 | 4.0 | 0.00 | 0.28 | 0.23 | 96 | 1009.6 |
| 20260506022504 | 30 | 20 | 3.0 | 4.0 | 0.00 | 0.28 | 0.23 | 96 | 1011.1 |
| 20260506022006 | 30 | 22 | 0.0 | 4.0 | 0.00 | 0.28 | 0.23 | 96 | 1011.0 |
| 20260506021504 | 30 | 22 | 1.0 | 4.0 | 0.00 | 0.28 | 0.23 | 96 | 1010.9 |
| 20260506021502 | 30 | 22 | 1.0 | 4.0 | 0.00 | 0.28 | 0.23 | 96 | 1009.2 |
| 20260506021005 | 31 | 22 | 1.0 | 4.0 | 0.00 | 0.28 | 0.23 | 96 | 1010.7 |
| 20260506020504 | 31 | 34 | 2.0 | 3.0 | 0.00 | 0.28 | 0.23 | 96 | 1010.6 |
| 20260506020006 | 31 | 10 | 1.0 | 4.0 | 0.00 | 0.28 | 0.23 | 96 | 1010.6 |
| 20260506015006 | 31 | 19 | 3.0 | 8.0 | 0.00 | 0.28 | 0.23 | 96 | 1010.4 |
| 20260506014504 | 31 | 23 | 4.0 | 5.0 | 0.00 | 0.28 | 0.23 | 96 | 1010.2 |
| 20260506014502 | 31 | 23 | 3.0 | 5.0 | 0.00 | 0.28 | 0.23 | 96 | 1008.3 |
| 20260506013002 | 31 | 22 | 1.0 | 5.0 | 0.00 | 0.28 | 0.23 | 96 | 1008.3 |
| 20260506012504 | 31 | 23 | 3.0 | 5.0 | 0.00 | 0.28 | 0.23 | 96 | 1010.3 |
| 20260506012006 | 31 | 24 | 3.0 | 5.0 | 0.00 | 0.28 | 0.23 | 96 | 1010.2 |
| 20260506011504 | 31 | 20 | 3.0 | 5.0 | 0.00 | 0.28 | 0.23 | 96 | 1010.0 |
| 20260506010505 | 31 | 33 | 4.0 | 5.0 | 0.00 | 0.28 | 0.23 | 96 | 1010.0 |
| 20260506010006 | 31 | 32 | 2.0 | 4.0 | 0.00 | 0.28 | 0.23 | 96 | 1010.0 |
| 20260506010003 | 31 | 32 | 1.0 | 4.0 | 0.00 | 0.28 | 0.23 | 96 | 1007.7 |
| 20260506005504 | 32 | 37 | 2.0 | 4.0 | 0.01 | 0.28 | 0.23 | 96 | 1010.1 |
| 20260506005005 | 32 | 51 | 1.0 | 4.0 | 0.01 | 0.28 | 0.23 | 96 | 1010.1 |
| 20260506004504 | 32 | 51 | 2.0 | 4.0 | 0.02 | 0.28 | 0.23 | 96 | 1009.9 |
| 20260506004005 | 32 | 59 | 3.0 | 4.0 | 0.02 | 0.28 | 0.23 | 96 | 1009.9 |
| 20260506003504 | 32 | 77 | 3.0 | 4.0 | 0.03 | 0.28 | 0.23 | 96 | 1009.9 |
| 20260506003007 | 32 | 109 | 2.0 | 6.0 | 0.03 | 0.28 | 0.23 | 95 | 1007.3 |
| 20260506003005 | 32 | 109 | 2.0 | 6.0 | 0.03 | 0.28 | 0.23 | 95 | 1009.9 |
| 20260506001504 | 32 | 88 | 6.0 | 9.0 | 0.04 | 0.28 | 0.23 | 95 | 1009.7 |
| 20260506001502 | 32 | 88 | 6.0 | 9.0 | 0.04 | 0.28 | 0.23 | 95 | 1006.9 |
| 20260506001015 | 33 | 93 | 6.0 | 9.0 | 0.04 | 0.28 | 0.23 | 94 | 1009.7 |
| 20260506000505 | 33 | 90 | 6.0 | 8.0 | 0.05 | 0.28 | 0.23 | 94 | 1009.9 |
| 20260506000006 | 34 | 86 | 4.0 | 7.0 | 0.05 | 0.28 | 0.23 | 95 | 1009.9 |
| 20260506000002 | 34 | 86 | 3.0 | 7.0 | 0.05 | 0.28 | 0.23 | 95 | 1007.0 |
| 20260505235504 | 34 | 87 | 4.0 | 9.0 | 0.04 | 0.27 | 0.22 | 95 | 1009.8 |
| 20260505235002 | 34 | 105 | 5.0 | 9.0 | 0.04 | 0.27 | 0.22 | 95 | 1009.6 |
| 20260505234503 | 35 | 109 | 5.0 | 8.0 | 0.03 | 0.26 | 0.21 | 95 | 1006.6 |
| 20260505234005 | 35 | 92 | 4.0 | 8.0 | 0.03 | 0.26 | 0.21 | 95 | 1009.7 |
| 20260505233505 | 35 | 117 | 6.0 | 8.0 | 0.02 | 0.25 | 0.20 | 95 | 1009.7 |
| 20260505233006 | 35 | 109 | 5.0 | 9.0 | 0.02 | 0.25 | 0.20 | 95 | 1009.7 |
| 20260505233002 | 35 | 109 | 5.0 | 9.0 | 0.02 | 0.25 | 0.20 | 95 | 1006.6 |
| 20260505232504 | 35 | 115 | 6.0 | 9.0 | 0.02 | 0.25 | 0.20 | 95 | 1009.5 |
| 20260505232005 | 35 | 105 | 4.0 | 10.0 | 0.01 | 0.24 | 0.19 | 95 | 1009.4 |
| 20260505231504 | 35 | 112 | 6.0 | 11.0 | 0.01 | 0.24 | 0.19 | 95 | 1009.3 |
| 20260505231006 | 35 | 101 | 9.0 | 11.0 | 0.01 | 0.24 | 0.19 | 95 | 1009.3 |
| 20260505230504 | 35 | 105 | 8.0 | 10.0 | 0.00 | 0.23 | 0.18 | 95 | 1009.3 |
| 20260505230007 | 35 | 111 | 7.0 | 11.0 | 0.00 | 0.23 | 0.18 | 94 | 1005.7 |
| 20260505225505 | 35 | 109 | 8.0 | 11.0 | 0.00 | 0.23 | 0.18 | 94 | 1009.1 |
| 20260505225005 | 35 | 128 | 6.0 | 10.0 | 0.00 | 0.23 | 0.18 | 95 | 1009.0 |
| 20260505224504 | 35 | 123 | 7.0 | 10.0 | 0.00 | 0.23 | 0.18 | 95 | 1009.0 |
| 20260505223459 | 36 | 124 | 8.0 | 13.0 | 0.01 | 0.23 | 0.18 | 94 | 1008.8 |
| 20260505223059 | 36 | 115 | 8.0 | 13.0 | 0.01 | 0.23 | 0.18 | 94 | 1005.0 |
| 20260505223006 | 36 | 106 | 9.0 | 13.0 | 0.01 | 0.23 | 0.18 | 94 | 1008.7 |
| 20260505223003 | 36 | 106 | 8.0 | 13.0 | 0.01 | 0.23 | 0.18 | 94 | 1005.0 |
| 20260505222504 | 36 | 105 | 7.0 | 12.0 | 0.01 | 0.23 | 0.18 | 94 | 1008.7 |
| 20260505222005 | 36 | 103 | 6.0 | 12.0 | 0.01 | 0.23 | 0.18 | 94 | 1008.7 |
| 20260505221503 | 36 | 103 | 8.0 | 12.0 | 0.01 | 0.23 | 0.18 | 94 | 1005.0 |
| 20260505221005 | 36 | 116 | 9.0 | 11.0 | 0.01 | 0.23 | 0.18 | 94 | 1008.9 |
| 20260505220505 | 36 | 109 | 8.0 | 12.0 | 0.01 | 0.23 | 0.18 | 94 | 1008.9 |
| 20260505220004 | 36 | 116 | 8.0 | 13.0 | 0.01 | 0.23 | 0.18 | 94 | 1005.0 |
| 20260505215006 | 36 | 121 | 9.0 | 12.0 | 0.01 | 0.23 | 0.18 | 94 | 1009.1 |
| 20260505214504 | 36 | 136 | 7.0 | 11.0 | 0.01 | 0.23 | 0.18 | 94 | 1009.1 |
| 20260505214502 | 36 | 136 | 7.0 | 11.0 | 0.01 | 0.23 | 0.18 | 94 | 1005.0 |
| 20260505214005 | 36 | 129 | 7.0 | 11.0 | 0.00 | 0.22 | 0.17 | 95 | 1009.1 |